GW4934 Weather Reports


time (UTC)temp
F
wind
direction
speed
knots
gust
knots
rain 1hr
in
rain 24hr
in
rain mn
in
humidity
%
barometer
mb
20260505014413 88 232 0.0 0.0 0.00 0.00 0.00 74 1008.0
20260505013913 87 233 0.0 0.0 0.00 0.00 0.00 75 1008.0
20260505013413 86 232 0.0 0.0 0.00 0.00 0.00 76 1008.0
20260505012913 85 232 0.0 0.0 0.00 0.00 0.00 77 1008.0
20260505012417 84 233 0.0 0.0 0.00 0.00 0.00 79 1008.0
20260505011913 84 232 0.0 0.0 0.00 0.00 0.00 79 1007.0
20260505011413 83 232 0.0 0.0 0.00 0.00 0.00 79 1007.0
20260505010913 83 232 0.0 0.0 0.00 0.00 0.00 79 1007.0
20260505010413 83 232 0.0 0.0 0.00 0.00 0.00 79 1007.0
20260505005916 83 232 0.0 0.0 0.00 0.00 0.00 79 1007.0
20260505005413 83 232 0.0 0.0 0.00 0.00 0.00 81 1007.0
20260505004913 83 232 0.0 0.0 0.00 0.00 0.00 81 1007.0
20260505004413 83 232 0.0 0.0 0.00 0.00 0.00 81 1007.0
20260505003914 83 226 0.0 0.0 0.00 0.00 0.00 81 1007.0
20260505003413 83 226 0.0 0.0 0.00 0.00 0.00 81 1007.0
20260505002913 83 226 0.0 0.0 0.00 0.00 0.00 81 1007.0
20260505002413 83 226 0.0 0.0 0.00 0.00 0.00 81 1007.0
20260505001913 83 226 0.0 0.0 0.00 0.00 0.00 81 1007.0
20260505001416 83 226 0.0 0.0 0.00 0.00 0.00 81 1007.0
20260505000914 83 226 0.0 0.0 0.00 0.00 0.00 81 1007.0
20260505000414 83 226 0.0 0.9 0.00 0.00 0.00 81 1007.0
20260504235913 83 226 0.0 0.9 0.00 0.00 0.00 81 1007.0
20260504235413 83 228 0.0 0.0 0.00 0.00 0.00 81 1007.0
20260504234915 83 229 0.0 0.0 0.00 0.00 0.00 81 1007.0
20260504234413 83 228 0.0 0.9 0.00 0.00 0.00 81 1007.0
20260504233913 83 228 0.0 0.9 0.00 0.00 0.00 81 1007.0
20260504233413 83 258 0.0 0.9 0.00 0.00 0.00 81 1007.0
20260504232913 83 238 0.0 0.9 0.00 0.00 0.00 81 1007.0
20260504232413 83 240 0.0 0.9 0.00 0.00 0.00 81 1007.0
20260504231914 83 245 0.0 0.9 0.00 0.00 0.00 81 1007.0
20260504231414 83 248 0.0 0.9 0.00 0.00 0.00 81 1007.0
20260504230913 83 233 0.0 0.9 0.00 0.00 0.00 81 1007.0
20260504230414 83 262 0.0 0.9 0.00 0.00 0.00 82 1007.0
20260504225913 83 262 0.0 0.9 0.00 0.00 0.00 82 1007.0
20260504225413 83 220 0.0 3.5 0.00 0.00 0.00 81 1007.0
20260504224913 83 238 2.6 3.5 0.00 0.00 0.00 81 1007.0
20260504224413 83 219 3.5 4.3 0.00 0.00 0.00 81 1007.0
20260504223915 83 232 0.0 4.3 0.00 0.00 0.00 81 1007.0
20260504223413 83 240 0.0 3.5 0.00 0.00 0.00 81 1007.0
20260504222913 83 287 0.0 3.5 0.00 0.00 0.00 81 1007.0
20260504222414 83 255 0.9 0.9 0.00 0.00 0.00 81 1007.0
20260504221913 83 240 0.0 0.9 0.00 0.00 0.00 81 1007.0
20260504221413 83 271 0.0 4.3 0.00 0.00 0.00 81 1007.0
20260504220913 83 234 0.0 4.3 0.00 0.00 0.00 82 1007.0
20260504220414 83 229 0.9 4.3 0.00 0.00 0.00 82 1007.0
20260504215913 83 219 0.0 2.6 0.00 0.00 0.00 81 1007.0
20260504215414 83 217 0.0 5.2 0.00 0.00 0.00 82 1007.0
20260504214914 83 210 0.0 5.2 0.00 0.00 0.00 82 1007.0
20260504214413 82 231 0.9 5.2 0.00 0.00 0.00 82 1008.0
20260504213913 82 236 0.0 4.3 0.00 0.00 0.00 83 1008.0
20260504213413 82 279 1.7 4.3 0.00 0.00 0.00 83 1008.0
20260504212914 82 251 0.0 4.3 0.00 0.00 0.00 83 1008.0
20260504212414 82 273 0.0 4.3 0.00 0.00 0.00 83 1008.0
20260504211914 82 240 1.7 4.3 0.00 0.00 0.00 84 1008.0
20260504211413 82 264 1.7 7.0 0.00 0.00 0.00 83 1008.0
20260504210913 82 270 1.7 7.0 0.00 0.00 0.00 84 1008.0
20260504210413 82 264 2.6 11.3 0.00 0.00 0.00 84 1008.0
20260504205913 82 274 4.3 11.3 0.00 0.00 0.00 84 1008.0
20260504205414 82 285 8.7 9.6 0.00 0.00 0.00 84 1008.0
20260504204913 82 297 0.9 9.6 0.00 0.00 0.00 84 1008.0
20260504204415 83 295 7.0 9.6 0.00 0.00 0.00 83 1008.0
20260504203913 83 284 5.2 8.7 0.00 0.00 0.00 83 1008.0
20260504203414 83 282 1.7 7.0 0.00 0.00 0.00 83 1008.0
20260504202916 83 297 0.0 8.7 0.00 0.00 0.00 83 1008.0
20260504202413 84 292 2.6 8.7 0.00 0.00 0.00 82 1008.0
20260504201914 84 306 5.2 8.7 0.00 0.00 0.00 83 1008.0
20260504201418 84 291 3.5 7.8 0.00 0.00 0.00 82 1008.0
20260504200913 84 288 0.0 4.3 0.00 0.00 0.00 81 1008.0
20260504200413 84 289 0.0 0.9 0.00 0.00 0.00 81 1007.0
20260504195914 84 210 0.0 0.0 0.00 0.00 0.00 81 1007.0
20260504195414 84 204 0.0 2.6 0.00 0.00 0.00 81 1007.0
20260504194913 84 203 0.0 2.6 0.00 0.00 0.00 81 1007.0
20260504194414 84 196 0.0 0.9 0.00 0.00 0.00 81 1007.0
20260504193913 84 176 0.0 0.0 0.00 0.00 0.00 81 1008.0
20260504193413 84 162 0.0 0.9 0.00 0.00 0.00 81 1008.0
20260504192913 84 221 0.0 0.9 0.00 0.00 0.00 81 1008.0
20260504192414 84 156 0.0 3.5 0.00 0.00 0.00 80 1008.0
20260504191914 84 205 0.0 4.3 0.00 0.00 0.00 80 1008.0
20260504191414 84 190 0.0 4.3 0.00 0.00 0.00 80 1008.0
20260504190913 84 153 0.0 4.3 0.00 0.00 0.00 80 1008.0
20260504190414 84 196 0.0 4.3 0.00 0.00 0.00 80 1008.0
20260504185913 84 217 1.7 4.3 0.00 0.00 0.00 80 1008.0
20260504185413 84 139 0.0 3.5 0.00 0.00 0.00 80 1008.0
20260504184914 84 146 0.0 3.5 0.00 0.00 0.00 80 1008.0
20260504184413 84 156 0.0 2.6 0.00 0.00 0.00 80 1008.0
20260504183914 84 195 0.0 4.3 0.00 0.00 0.00 79 1008.0
20260504183413 84 196 0.9 4.3 0.00 0.00 0.00 79 1008.0
20260504182913 84 220 0.0 5.2 0.00 0.00 0.00 79 1008.0
20260504182414 85 200 0.9 5.2 0.00 0.00 0.00 79 1008.0
20260504181913 85 261 0.0 4.3 0.00 0.00 0.00 79 1008.0
20260504181413 85 233 0.0 3.5 0.00 0.00 0.00 79 1008.0
20260504180914 85 196 0.0 3.5 0.00 0.00 0.00 79 1008.0
20260504180414 85 202 1.7 3.5 0.00 0.00 0.00 79 1008.0
20260504175914 85 230 0.0 2.6 0.00 0.00 0.00 79 1008.0
20260504175413 85 203 0.0 3.5 0.00 0.00 0.00 79 1008.0
20260504174914 85 223 3.5 3.5 0.00 0.00 0.00 79 1008.0
20260504174413 85 205 0.0 1.7 0.00 0.00 0.00 79 1008.0
20260504173914 85 231 0.0 4.3 0.00 0.00 0.00 79 1008.0
20260504173414 85 228 0.0 5.2 0.00 0.00 0.00 79 1008.0
20260504172913 86 243 0.0 7.0 0.00 0.00 0.00 79 1008.0
20260504172414 86 187 3.5 7.0 0.00 0.00 0.00 79 1008.0
20260504171913 86 232 3.5 5.2 0.00 0.00 0.00 79 1008.0
20260504171414 86 223 1.7 4.3 0.00 0.00 0.00 79 1008.0
20260504170914 86 229 0.0 6.1 0.00 0.00 0.00 79 1009.0
20260504170414 86 238 0.0 6.1 0.00 0.00 0.00 79 1008.0
20260504160414 87 153 3.5 7.0 0.00 0.00 0.00 80 1008.0
20260504150913 88 142 0.0 10.4 0.00 0.00 0.00 79 1007.0
20260504150414 88 146 4.3 10.4 0.00 0.00 0.00 79 1007.0
20260504140914 88 116 1.7 9.6 0.00 0.00 0.00 81 1006.0
20260504140416 88 132 9.6 9.6 0.00 0.00 0.00 81 1006.0
20260504130415 88 117 7.0 9.6 0.00 0.00 0.00 82 1005.0
20260504110414 95 176 7.0 7.8 0.00 0.00 0.00 69 1004.0
20260504100414 96 165 2.6 7.8 0.00 0.00 0.00 65 1004.0
20260504081916 97 283 0.0 7.8 0.00 0.00 0.00 64 1005.0
20260504081413 96 293 6.1 7.8 0.00 0.00 0.00 65 1006.0
20260504080913 96 286 3.5 9.6 0.00 0.00 0.00 65 1006.0
20260504080414 96 281 0.0 9.6 0.00 0.00 0.00 65 1006.0
20260504050414 92 140 6.1 12.2 0.00 0.00 0.00 72 1009.0
20260504045913 92 179 6.1 11.3 0.00 0.00 0.00 73 1009.0
20260504045413 91 150 6.1 11.3 0.00 0.00 0.00 73 1009.0
20260504044914 91 146 6.1 9.6 0.00 0.00 0.00 73 1009.0
20260504044413 90 221 0.0 8.7 0.00 0.00 0.00 75 1009.0
20260504043913 89 138 5.2 12.2 0.00 0.00 0.00 74 1009.0
20260504043413 89 153 5.2 12.2 0.00 0.00 0.00 74 1009.0
20260504042913 89 226 2.6 9.6 0.00 0.00 0.00 74 1009.0
20260504042413 88 131 5.2 10.4 0.00 0.00 0.00 74 1009.0
20260504041913 88 143 2.6 13.9 0.00 0.00 0.00 75 1009.0
20260504041413 88 144 10.4 13.9 0.00 0.00 0.00 75 1009.0
20260504040913 88 144 7.8 13.9 0.00 0.00 0.00 76 1009.0
20260504040413 88 109 7.8 12.2 0.00 0.00 0.00 76 1009.0
20260504035913 88 116 10.4 12.2 0.00 0.00 0.00 76 1009.0
20260504035413 88 122 7.8 14.8 0.00 0.00 0.00 76 1009.0
20260504034913 88 115 11.3 14.8 0.00 0.00 0.00 75 1009.0
20260504034413 89 146 5.2 9.6 0.00 0.00 0.00 77 1009.0
20260504033913 89 129 4.3 7.8 0.00 0.00 0.00 77 1009.0
20260504033413 89 111 1.7 7.0 0.00 0.00 0.00 77 1009.0
20260504032913 89 117 0.9 1.7 0.00 0.00 0.00 76 1009.0
20260504032413 89 118 0.0 0.9 0.00 0.00 0.00 76 1009.0
20260504031913 89 121 0.0 0.9 0.00 0.00 0.00 76 1009.0
20260504031413 88 163 0.0 3.5 0.00 0.00 0.00 77 1009.0
20260504030915 88 114 0.0 5.2 0.00 0.00 0.00 77 1009.0
20260504030413 88 113 0.0 5.2 0.00 0.00 0.00 77 1009.0
20260504025913 87 154 0.0 3.5 0.00 0.00 0.00 78 1008.0
20260504025413 87 139 0.0 5.2 0.00 0.00 0.00 78 1008.0
20260504024913 87 163 0.0 7.8 0.00 0.00 0.00 78 1008.0
20260504024413 86 105 0.0 7.8 0.00 0.00 0.00 78 1008.0
20260504023913 86 103 3.5 7.8 0.00 0.00 0.00 79 1008.0
20260504023413 86 146 0.0 7.8 0.00 0.00 0.00 80 1008.0
20260504022913 86 103 0.0 7.0 0.00 0.00 0.00 80 1008.0
20260504022414 85 116 5.2 7.0 0.00 0.00 0.00 81 1008.0
20260504021913 85 129 0.0 5.2 0.00 0.00 0.00 81 1008.0
20260504021413 85 106 5.2 6.1 0.00 0.00 0.00 81 1008.0
20260504020913 85 124 0.0 7.8 0.00 0.00 0.00 81 1008.0
20260504020413 85 138 0.0 7.8 0.00 0.00 0.00 81 1008.0
20260504015914 84 107 4.3 8.7 0.00 0.00 0.00 81 1008.0
20260504015413 84 113 3.5 12.2 0.00 0.00 0.00 81 1008.0
20260504014913 84 130 0.9 12.2 0.00 0.00 0.00 82 1007.0